AirNav   Bose ProFlight Series 2 Headset
 
 489 users online  

50PN Delmont Personal Use Heliport
Delmont, Pennsylvania, USA

GOING TO DELMONT?


FAA INFORMATION EFFECTIVE 02 JANUARY 2020

Location

FAA Identifier: 50PN
Lat/Long: 40-23-28.2440N 079-34-16.1510W
40-23.470733N 079-34.269183W
40.3911789,-79.5711531
(estimated)
Elevation: 1210 ft. / 369 m (estimated)
Variation: 08W (1985)
From city: 2 miles N of DELMONT, PA
Time zone: UTC -5 (UTC -4 during Daylight Saving Time)
Zip code: 15601

Heliport Operations

Heliport use: Private use. Permission required prior to landing
Activation date: 08/1980
Control tower: no
ARTCC: CLEVELAND CENTER
FSS: ALTOONA FLIGHT SERVICE STATION
Attendance: MON-SAT 0800-1700
Wind indicator: yes
Segmented circle: no

Heliport Communications

WX AWOS-3 at LBE (10 nm SE): 118.375 (724-539-0671)
WX AWOS-3 at FWQ (16 nm SW): 118.475 (724-379-5815)
WX ASOS at AGC (17 nm W): 120.55 (412-466-8968)

Nearby radio navigation aids

VOR radial/distance  VOR name  Freq  Var
AGCr082/22.5ALLEGHENY VOR/DME110.0009W
IHDr345/26.9INDIAN HEAD VORTAC108.2006W
JSTr284/34.0JOHNSTOWN VOR/DME113.0006W
RECr265/38.8REVLOC VOR/DME110.6009W
EWCr140/39.1ELLWOOD CITY VOR/DME115.8008W

 
NDB name  Hdg/Dist  Freq  Var  ID
STOYSTOWN311/35.120910WSYS ... -.-- ...

Heliport Services

Runway Information

Helipad H1

Dimensions: 60 x 60 ft. / 18 x 18 m
Surface: concrete, in fair condition
CONCRETE LNDG PAD WITHIN A 200' X 200' TURF LNDG/TKOF AREA.
Latitude: 40-23.470733N
Longitude: 079-34.269183W
Elevation: 1210.0 ft.
Traffic pattern: leftleft
Markings: none, in fair condition

Heliport Ownership and Management from official FAA records

Ownership: Privately-owned
Owner: BECKWITH MACHINERY CO
PO BOX 8718
PITTSBURGH, PA 15221
Phone 412-468-5000
Manager: JOHN H. SLIKE, V.P.
PO BOX 8718
PITTSBURGH, PA 15221
Phone 412-351-4010
BECKWITH MACHINERY CO.

Additional Remarks

FOR CD CTC JOHNSTOWN APCH AT 814-532-5960, WHEN APCH CLSD CTC CLEVELAND ARTCC AT 440-774-0234.

Instrument Procedures

There are no published instrument procedures at 50PN.

Some nearby airports with instrument procedures:

KLBE - Arnold Palmer Regional Airport (10 nm SE)
KFWQ - Rostraver Airport (16 nm SW)
KAGC - Allegheny County Airport (17 nm W)
6P7 - McVille Airport (21 nm N)
G05 - Finleyville Airpark (22 nm SW)
 
Loc | Ops | Rwys | IFR | FBO | Links
Com | Nav | Svcs | Stats | Notes
Area around 50PN (Delmont Personal Use Heliport)
 
Road maps at: MapQuest Bing Google
 
Aerial photo
No photo
 
Sectional chart

 
Airport distance calculator
Flying to Delmont Personal Use Heliport? Find the distance to fly.

From to 50PN

Sunrise and sunset
Times for 18-Jan-2020
 Local
(UTC-5)
 Zulu
(UTC)
Morning civil twilight07:0912:09
Sunrise07:3912:39
Sunset17:1922:19
Evening civil twilight17:4822:48

Current date and time
Zulu (UTC)  18-Jan-2020 10:15:18
Local (UTC-5)  18-Jan-2020 05:15:18
 
METAR
KLBE 
11nm SE 
180955Z AUTO 05005G19KT 6SM -SN FEW005 SCT025 BKN045 M03/M05 A3030 RMK AO2
KAGC 
16nm W 
180953Z 11008KT 10SM OVC095 M04/M06 A3026 RMK AO2 UPB18E30SNE18 SLP269 P0003 I1000 T10391056
KP53 
16nm SW 
180956Z AUTO 16007KT 110V200 M04/M07 A3001 RMK AO1 PRESFR SLP173 T10441072
TAF
KLBE 
11nm SE 
180538Z 1806/1906 13006KT P6SM OVC150 FM180900 14008KT 2SM -SN OVC035 FM181100 14010G20KT P6SM OVC035 FM181500 17015G25KT 2SM -FZRASN OVC010 FM181700 17015G25KT 3SM -RA OVC015 WS020/20045KT FM190000 23015G30KT P6SM OVC015
KAGC 
16nm W 
180800Z 1808/1906 10005KT 2SM -SN OVC025 TEMPO 1808/1809 1SM -SN FM181100 13008KT P6SM OVC035 FM181500 15010KT 2SM -FZRASN OVC010 FM181700 18012KT 2SM -RA OVC008 WS020/21040KT FM182000 20012G22KT 5SM -RA OVC010 FM182300 23015G25KT P6SM OVC010
NOTAMs
Click for the latest NOTAMs
NOTAMs are issued by the DoD/FAA and will open in a separate window not controlled by AirNav.

 

 
 

Would you like to see your business listed on this page?

 If your business provides an interesting product or service to pilots, flight crews, aircraft, or users of the Delmont Personal Use Heliport, you should consider listing it here.  To start the listing process, click on the button below
 
Add a business
 

Other Pages about Delmont Personal Use Heliport

Update a link
 
Copyright © AirNav, LLC. All rights reserved. Privacy Policy  Contact